GFSFLT1_prec_pwat_000.txt.gz
Precipitable_Water
0.86 0.94 0.97 0.99 1.07 1.19 1.26 1.23 1.24 1.21 1.09 1.00 0.96 0.95 0.95 0.92 0.90 0.89 0.89 0.85 0.81 0.77 0.76 0.76 0.76 0.69 0.64 0.63 0.57 0.56 0.55 0.54
0.84 0.89 0.93 0.97 1.11 1.15 1.17 1.19 1.15 1.01 0.93 0.91 0.93 0.87 0.89 0.88 0.88 0.87 0.84 0.82 0.80 0.77 0.73 0.70 0.67 0.63 0.61 0.58 0.56 0.53 0.50 0.48
0.79 0.85 0.92 0.98 0.98 0.96 0.95 0.94 0.94 0.94 0.95 0.95 0.92 0.88 0.86 0.86 0.87 0.83 0.81 0.76 0.71 0.64 0.63 0.62 0.61 0.58 0.57 0.56 0.55 0.50 0.48 0.51
0.73 0.77 0.78 0.80 0.82 0.86 0.84 0.83 0.84 0.85 0.86 0.85 0.83 0.83 0.81 0.77 0.73 0.71 0.67 0.65 0.63 0.60 0.58 0.56 0.55 0.55 0.52 0.52 0.52 0.50 0.46 0.48
0.68 0.66 0.64 0.66 0.68 0.71 0.72 0.73 0.74 0.76 0.76 0.74 0.73 0.72 0.66 0.66 0.63 0.62 0.60 0.59 0.55 0.54 0.55 0.54 0.54 0.53 0.51 0.52 0.51 0.46 0.42 0.37
0.57 0.61 0.63 0.65 0.68 0.68 0.69 0.70 0.70 0.72 0.71 0.67 0.63 0.58 0.55 0.57 0.58 0.56 0.57 0.59 0.58 0.56 0.53 0.54 0.53 0.50 0.46 0.43 0.44 0.44 0.45 0.43
0.59 0.63 0.66 0.66 0.69 0.68 0.68 0.67 0.67 0.69 0.68 0.67 0.64 0.58 0.57 0.56 0.55 0.54 0.55 0.57 0.54 0.55 0.58 0.52 0.49 0.46 0.41 0.40 0.40 0.40 0.41 0.41
0.69 0.66 0.64 0.65 0.68 0.72 0.72 0.73 0.72 0.71 0.69 0.67 0.65 0.61 0.59 0.56 0.55 0.56 0.58 0.56 0.59 0.52 0.52 0.48 0.47 0.43 0.37 0.37 0.36 0.35 0.36 0.36
0.68 0.70 0.69 0.70 0.72 0.72 0.72 0.71 0.71 0.73 0.70 0.66 0.65 0.63 0.61 0.61 0.63 0.62 0.63 0.57 0.55 0.51 0.48 0.44 0.42 0.39 0.33 0.32 0.29 0.28 0.28 0.27
0.68 0.71 0.73 0.71 0.70 0.68 0.70 0.71 0.69 0.66 0.63 0.63 0.65 0.64 0.62 0.61 0.57 0.48 0.46 0.45 0.47 0.48 0.46 0.40 0.36 0.31 0.30 0.28 0.27 0.25 0.24 0.24
0.69 0.70 0.69 0.67 0.67 0.68 0.67 0.66 0.62 0.63 0.62 0.60 0.57 0.53 0.51 0.47 0.42 0.42 0.47 0.49 0.51 0.50 0.48 0.35 0.30 0.29 0.28 0.28 0.25 0.23 0.23 0.24
0.67 0.68 0.67 0.65 0.65 0.62 0.59 0.59 0.58 0.55 0.52 0.49 0.43 0.43 0.45 0.46 0.44 0.44 0.47 0.49 0.53 0.47 0.41 0.38 0.33 0.28 0.25 0.24 0.24 0.23 0.24 0.23
0.67 0.67 0.64 0.62 0.59 0.55 0.52 0.50 0.46 0.42 0.38 0.38 0.42 0.44 0.44 0.44 0.43 0.42 0.46 0.45 0.45 0.43 0.41 0.36 0.29 0.25 0.24 0.22 0.22 0.22 0.21 0.21
0.66 0.63 0.59 0.53 0.48 0.46 0.45 0.44 0.39 0.33 0.29 0.28 0.27 0.26 0.28 0.34 0.43 0.40 0.38 0.41 0.42 0.46 0.33 0.28 0.24 0.23 0.22 0.23 0.23 0.22 0.23 0.24
0.61 0.55 0.52 0.48 0.46 0.44 0.42 0.37 0.32 0.31 0.27 0.25 0.23 0.24 0.26 0.32 0.36 0.40 0.45 0.49 0.42 0.35 0.28 0.26 0.25 0.24 0.23 0.24 0.23 0.23 0.24 0.24
0.56 0.52 0.48 0.45 0.42 0.38 0.33 0.31 0.31 0.29 0.26 0.24 0.24 0.24 0.26 0.30 0.35 0.37 0.39 0.37 0.35 0.29 0.27 0.26 0.25 0.23 0.24 0.25 0.24 0.24 0.24 0.23
0.51 0.50 0.44 0.40 0.34 0.31 0.31 0.30 0.28 0.27 0.24 0.25 0.25 0.25 0.26 0.29 0.31 0.34 0.37 0.34 0.28 0.27 0.29 0.26 0.22 0.24 0.26 0.25 0.25 0.23 0.21 0.22
0.49 0.43 0.37 0.33 0.31 0.31 0.30 0.28 0.27 0.26 0.26 0.26 0.25 0.25 0.26 0.29 0.33 0.36 0.37 0.31 0.33 0.31 0.26 0.25 0.23 0.26 0.25 0.25 0.25 0.23 0.23 0.24
0.42 0.36 0.33 0.33 0.32 0.31 0.30 0.27 0.27 0.25 0.25 0.25 0.26 0.26 0.26 0.29 0.34 0.36 0.38 0.37 0.34 0.27 0.26 0.26 0.25 0.25 0.25 0.26 0.26 0.24 0.24 0.25

GFSFLT1_prec_pwat_006.txt.gz
Precipitable_Water
0.88 0.96 0.99 1.04 1.09 1.15 1.20 1.30 1.32 1.36 1.36 1.29 1.09 1.02 1.00 1.03 1.02 0.98 0.91 0.84 0.80 0.79 0.77 0.70 0.63 0.58 0.56 0.54 0.50 0.48 0.47 0.45
0.88 0.93 1.02 1.06 1.14 1.17 1.20 1.23 1.28 1.19 1.06 0.97 0.92 0.90 1.01 1.01 0.91 0.86 0.80 0.76 0.73 0.67 0.63 0.60 0.59 0.56 0.53 0.51 0.48 0.46 0.43 0.47
0.78 0.87 0.97 1.06 1.09 1.08 1.06 1.00 0.97 0.98 0.94 0.94 0.95 0.88 0.78 0.75 0.73 0.72 0.71 0.67 0.63 0.59 0.57 0.55 0.53 0.49 0.48 0.47 0.44 0.40 0.41 0.44
0.77 0.82 0.85 0.84 0.81 0.78 0.75 0.75 0.75 0.76 0.77 0.75 0.72 0.71 0.72 0.68 0.67 0.63 0.63 0.61 0.60 0.59 0.56 0.54 0.53 0.52 0.48 0.48 0.45 0.40 0.36 0.39
0.66 0.66 0.63 0.60 0.60 0.65 0.69 0.69 0.69 0.72 0.73 0.71 0.69 0.66 0.62 0.64 0.61 0.61 0.61 0.62 0.60 0.60 0.58 0.55 0.52 0.51 0.47 0.44 0.43 0.37 0.36 0.31
0.63 0.64 0.67 0.69 0.70 0.66 0.67 0.69 0.70 0.71 0.69 0.68 0.66 0.62 0.62 0.62 0.60 0.59 0.59 0.59 0.58 0.55 0.51 0.50 0.46 0.45 0.41 0.40 0.39 0.37 0.36 0.30
0.65 0.69 0.72 0.72 0.69 0.69 0.70 0.71 0.69 0.67 0.66 0.67 0.66 0.64 0.62 0.58 0.57 0.55 0.56 0.54 0.52 0.48 0.46 0.44 0.44 0.43 0.41 0.40 0.37 0.34 0.29 0.28
0.69 0.73 0.66 0.68 0.69 0.70 0.72 0.71 0.67 0.66 0.66 0.67 0.64 0.62 0.59 0.56 0.55 0.54 0.51 0.47 0.42 0.39 0.41 0.42 0.42 0.39 0.41 0.42 0.37 0.37 0.32 0.29
0.70 0.67 0.62 0.66 0.69 0.70 0.71 0.70 0.68 0.68 0.65 0.62 0.61 0.59 0.57 0.54 0.51 0.47 0.43 0.39 0.37 0.39 0.40 0.40 0.42 0.42 0.41 0.37 0.37 0.34 0.32 0.28
0.61 0.63 0.63 0.64 0.67 0.69 0.70 0.68 0.65 0.59 0.54 0.50 0.47 0.45 0.39 0.34 0.32 0.30 0.27 0.28 0.30 0.37 0.42 0.41 0.52 0.43 0.45 0.42 0.34 0.29 0.28 0.27
0.60 0.60 0.63 0.65 0.67 0.70 0.67 0.66 0.56 0.53 0.48 0.45 0.38 0.35 0.32 0.28 0.25 0.22 0.21 0.24 0.33 0.39 0.42 0.44 0.44 0.42 0.39 0.34 0.28 0.26 0.25 0.27
0.59 0.62 0.65 0.66 0.66 0.66 0.65 0.58 0.52 0.50 0.43 0.37 0.35 0.32 0.28 0.24 0.21 0.19 0.21 0.28 0.35 0.39 0.40 0.40 0.37 0.33 0.28 0.26 0.22 0.24 0.24 0.24
0.60 0.63 0.64 0.62 0.63 0.60 0.54 0.55 0.52 0.42 0.38 0.36 0.33 0.30 0.28 0.25 0.22 0.22 0.24 0.27 0.32 0.36 0.34 0.35 0.34 0.27 0.25 0.23 0.23 0.24 0.21 0.20
0.61 0.63 0.60 0.57 0.54 0.53 0.57 0.50 0.40 0.39 0.37 0.36 0.31 0.29 0.28 0.25 0.23 0.23 0.24 0.26 0.31 0.33 0.36 0.34 0.25 0.24 0.25 0.25 0.25 0.22 0.21 0.20
0.60 0.58 0.54 0.52 0.55 0.59 0.47 0.41 0.40 0.39 0.37 0.33 0.31 0.29 0.29 0.26 0.24 0.25 0.26 0.30 0.32 0.33 0.33 0.29 0.24 0.25 0.26 0.26 0.26 0.23 0.22 0.22
0.57 0.54 0.52 0.57 0.56 0.47 0.43 0.41 0.39 0.37 0.34 0.32 0.31 0.31 0.28 0.26 0.25 0.26 0.28 0.31 0.32 0.37 0.32 0.25 0.24 0.27 0.27 0.27 0.27 0.25 0.22 0.22
0.55 0.55 0.58 0.51 0.44 0.41 0.40 0.38 0.35 0.35 0.33 0.31 0.31 0.29 0.27 0.25 0.26 0.27 0.30 0.34 0.33 0.30 0.25 0.25 0.27 0.29 0.29 0.30 0.29 0.25 0.23 0.21
0.55 0.52 0.48 0.44 0.41 0.39 0.36 0.34 0.35 0.34 0.32 0.30 0.29 0.28 0.25 0.25 0.27 0.28 0.31 0.33 0.34 0.33 0.31 0.31 0.31 0.29 0.30 0.31 0.27 0.23 0.19 0.17
0.51 0.48 0.48 0.44 0.39 0.36 0.36 0.35 0.34 0.32 0.29 0.28 0.27 0.26 0.26 0.25 0.26 0.28 0.31 0.33 0.33 0.33 0.32 0.29 0.29 0.29 0.29 0.27 0.22 0.18 0.17 0.17

GFSFLT1_prec_pwat_009.txt.gz
Precipitable_Water
0.87 0.95 1.03 1.09 1.12 1.16 1.20 1.25 1.28 1.31 1.34 1.23 1.11 1.04 0.98 1.02 1.00 0.93 0.88 0.83 0.79 0.73 0.69 0.66 0.63 0.59 0.56 0.54 0.50 0.49 0.48 0.45
0.90 0.98 1.04 1.08 1.16 1.19 1.24 1.24 1.23 1.17 1.09 1.00 0.91 0.86 0.89 0.87 0.77 0.71 0.69 0.67 0.66 0.65 0.62 0.59 0.57 0.54 0.53 0.50 0.47 0.44 0.43 0.46
0.83 0.91 1.00 1.06 1.12 1.11 1.06 1.01 0.96 0.92 0.88 0.85 0.85 0.81 0.71 0.68 0.68 0.67 0.66 0.65 0.63 0.61 0.61 0.59 0.58 0.55 0.53 0.49 0.44 0.40 0.42 0.42
0.81 0.86 0.86 0.86 0.80 0.77 0.75 0.76 0.78 0.77 0.75 0.73 0.72 0.73 0.71 0.65 0.63 0.62 0.63 0.64 0.62 0.60 0.59 0.56 0.54 0.52 0.45 0.43 0.41 0.38 0.33 0.38
0.69 0.65 0.65 0.67 0.69 0.70 0.71 0.72 0.69 0.71 0.72 0.68 0.64 0.62 0.61 0.65 0.64 0.65 0.65 0.63 0.61 0.59 0.56 0.52 0.47 0.45 0.42 0.40 0.39 0.37 0.35 0.31
0.57 0.59 0.63 0.68 0.69 0.71 0.72 0.70 0.73 0.71 0.69 0.68 0.66 0.66 0.67 0.65 0.64 0.63 0.62 0.62 0.59 0.54 0.50 0.44 0.39 0.38 0.38 0.36 0.34 0.32 0.35 0.33
0.63 0.67 0.69 0.70 0.68 0.68 0.68 0.68 0.70 0.72 0.73 0.73 0.70 0.67 0.62 0.59 0.59 0.57 0.55 0.54 0.49 0.45 0.40 0.37 0.37 0.37 0.38 0.40 0.38 0.39 0.33 0.31
0.63 0.66 0.70 0.66 0.63 0.66 0.68 0.70 0.71 0.73 0.72 0.70 0.66 0.61 0.58 0.55 0.49 0.44 0.40 0.35 0.31 0.31 0.36 0.36 0.40 0.40 0.41 0.43 0.41 0.37 0.31 0.28
0.65 0.69 0.66 0.63 0.65 0.67 0.69 0.69 0.68 0.67 0.64 0.59 0.55 0.51 0.46 0.38 0.34 0.30 0.26 0.24 0.23 0.26 0.31 0.37 0.41 0.44 0.42 0.46 0.40 0.35 0.31 0.28
0.65 0.66 0.64 0.64 0.65 0.67 0.65 0.63 0.62 0.59 0.54 0.53 0.51 0.43 0.36 0.33 0.30 0.26 0.23 0.22 0.25 0.29 0.35 0.38 0.43 0.45 0.42 0.41 0.35 0.28 0.25 0.25
0.64 0.62 0.63 0.65 0.66 0.65 0.63 0.60 0.59 0.57 0.56 0.52 0.42 0.38 0.34 0.31 0.28 0.24 0.23 0.23 0.28 0.34 0.38 0.42 0.45 0.41 0.36 0.31 0.27 0.26 0.24 0.25
0.61 0.61 0.63 0.65 0.65 0.64 0.63 0.63 0.65 0.56 0.48 0.43 0.39 0.36 0.33 0.31 0.28 0.25 0.24 0.25 0.28 0.34 0.40 0.42 0.39 0.35 0.37 0.27 0.25 0.25 0.24 0.24
0.61 0.61 0.62 0.62 0.61 0.62 0.64 0.64 0.54 0.51 0.44 0.41 0.38 0.36 0.33 0.31 0.29 0.27 0.27 0.26 0.29 0.34 0.37 0.37 0.34 0.37 0.36 0.25 0.25 0.25 0.25 0.25
0.59 0.60 0.60 0.59 0.59 0.61 0.62 0.59 0.55 0.44 0.40 0.38 0.37 0.34 0.33 0.32 0.30 0.28 0.28 0.28 0.29 0.31 0.34 0.34 0.34 0.31 0.26 0.26 0.27 0.27 0.27 0.27
0.58 0.60 0.60 0.57 0.57 0.60 0.65 0.54 0.44 0.40 0.38 0.36 0.35 0.34 0.34 0.33 0.30 0.28 0.28 0.29 0.30 0.32 0.32 0.37 0.36 0.30 0.25 0.27 0.28 0.27 0.28 0.28
0.56 0.58 0.57 0.53 0.62 0.59 0.47 0.44 0.41 0.39 0.36 0.35 0.34 0.35 0.34 0.32 0.28 0.28 0.28 0.30 0.33 0.32 0.33 0.29 0.27 0.27 0.27 0.29 0.29 0.29 0.30 0.27
0.56 0.56 0.54 0.60 0.48 0.46 0.45 0.42 0.39 0.37 0.36 0.35 0.34 0.33 0.32 0.28 0.28 0.27 0.28 0.30 0.33 0.33 0.32 0.31 0.30 0.31 0.32 0.32 0.30 0.29 0.26 0.20
0.54 0.54 0.53 0.47 0.46 0.47 0.43 0.40 0.37 0.36 0.36 0.33 0.30 0.31 0.28 0.27 0.27 0.26 0.27 0.29 0.33 0.34 0.32 0.33 0.33 0.33 0.31 0.30 0.28 0.23 0.19 0.17
0.53 0.53 0.51 0.50 0.49 0.46 0.41 0.37 0.36 0.36 0.33 0.29 0.28 0.27 0.26 0.27 0.27 0.26 0.28 0.29 0.29 0.32 0.31 0.31 0.28 0.28 0.27 0.24 0.22 0.19 0.17 0.17

GFSFLT1_prec_pwat_012.txt.gz
Precipitable_Water
0.89 0.95 1.02 1.08 1.14 1.22 1.28 1.31 1.33 1.34 1.32 1.27 1.18 1.06 0.97 0.92 0.89 0.84 0.79 0.75 0.73 0.69 0.69 0.68 0.65 0.61 0.61 0.61 0.57 0.55 0.51 0.49
0.90 0.97 1.04 1.09 1.13 1.18 1.23 1.29 1.29 1.25 1.14 1.00 0.88 0.81 0.84 0.83 0.78 0.72 0.70 0.69 0.68 0.67 0.64 0.65 0.64 0.61 0.60 0.58 0.52 0.48 0.45 0.46
0.86 0.95 1.01 1.07 1.11 1.19 1.23 1.18 1.12 1.06 0.96 0.86 0.84 0.83 0.80 0.69 0.70 0.70 0.70 0.69 0.69 0.66 0.67 0.63 0.61 0.56 0.55 0.52 0.43 0.37 0.36 0.44
0.82 0.90 0.98 1.01 0.97 0.97 0.94 0.90 0.87 0.84 0.82 0.79 0.78 0.76 0.71 0.70 0.69 0.68 0.71 0.71 0.69 0.66 0.64 0.60 0.55 0.50 0.42 0.43 0.42 0.39 0.35 0.37
0.81 0.76 0.75 0.75 0.76 0.81 0.80 0.80 0.77 0.76 0.74 0.71 0.71 0.70 0.69 0.72 0.70 0.71 0.70 0.71 0.67 0.63 0.58 0.53 0.46 0.41 0.39 0.41 0.39 0.38 0.37 0.30
0.65 0.65 0.68 0.70 0.73 0.72 0.73 0.72 0.71 0.73 0.74 0.75 0.74 0.72 0.72 0.71 0.70 0.68 0.67 0.63 0.60 0.56 0.50 0.44 0.40 0.39 0.40 0.40 0.39 0.37 0.39 0.35
0.60 0.65 0.70 0.71 0.73 0.72 0.72 0.70 0.71 0.73 0.76 0.77 0.73 0.68 0.66 0.64 0.60 0.52 0.45 0.41 0.38 0.34 0.34 0.41 0.41 0.40 0.41 0.39 0.39 0.40 0.41 0.39
0.62 0.66 0.68 0.71 0.71 0.70 0.70 0.71 0.70 0.74 0.73 0.69 0.66 0.63 0.58 0.51 0.41 0.36 0.33 0.30 0.27 0.26 0.29 0.32 0.39 0.41 0.41 0.46 0.47 0.44 0.36 0.33
0.63 0.67 0.70 0.70 0.69 0.68 0.70 0.70 0.68 0.66 0.63 0.61 0.63 0.57 0.48 0.44 0.38 0.35 0.32 0.28 0.28 0.30 0.33 0.36 0.40 0.44 0.45 0.46 0.48 0.39 0.35 0.33
0.63 0.67 0.70 0.69 0.68 0.70 0.67 0.64 0.63 0.60 0.62 0.64 0.64 0.53 0.48 0.40 0.37 0.35 0.30 0.29 0.29 0.32 0.39 0.41 0.44 0.47 0.48 0.47 0.40 0.34 0.32 0.29
0.64 0.66 0.69 0.69 0.70 0.68 0.66 0.62 0.62 0.65 0.67 0.64 0.53 0.48 0.44 0.40 0.35 0.32 0.30 0.29 0.30 0.32 0.38 0.42 0.47 0.45 0.48 0.41 0.34 0.32 0.29 0.28
0.61 0.64 0.68 0.70 0.67 0.65 0.64 0.65 0.66 0.63 0.63 0.55 0.49 0.45 0.41 0.36 0.35 0.33 0.31 0.31 0.30 0.30 0.33 0.38 0.40 0.43 0.37 0.35 0.39 0.30 0.28 0.29
0.61 0.62 0.66 0.67 0.64 0.62 0.63 0.63 0.62 0.62 0.58 0.49 0.43 0.40 0.38 0.36 0.37 0.35 0.33 0.31 0.31 0.31 0.32 0.35 0.37 0.37 0.35 0.37 0.34 0.28 0.28 0.29
0.58 0.59 0.61 0.62 0.61 0.60 0.61 0.62 0.65 0.58 0.43 0.40 0.41 0.39 0.37 0.38 0.37 0.36 0.33 0.32 0.32 0.34 0.34 0.34 0.34 0.35 0.36 0.32 0.29 0.29 0.30 0.31
0.55 0.56 0.58 0.59 0.58 0.59 0.62 0.67 0.56 0.43 0.41 0.41 0.39 0.38 0.38 0.38 0.38 0.36 0.32 0.31 0.32 0.34 0.34 0.34 0.35 0.33 0.32 0.29 0.29 0.30 0.32 0.32
0.53 0.54 0.56 0.56 0.55 0.57 0.65 0.55 0.45 0.44 0.42 0.40 0.38 0.38 0.38 0.38 0.37 0.33 0.31 0.30 0.32 0.35 0.31 0.31 0.30 0.29 0.29 0.31 0.32 0.33 0.32 0.30
0.52 0.55 0.55 0.54 0.53 0.59 0.56 0.48 0.45 0.45 0.42 0.39 0.38 0.37 0.36 0.36 0.33 0.30 0.29 0.29 0.32 0.34 0.35 0.35 0.33 0.32 0.33 0.33 0.30 0.29 0.27 0.22
0.49 0.52 0.55 0.54 0.54 0.53 0.52 0.48 0.46 0.43 0.40 0.38 0.37 0.34 0.33 0.31 0.29 0.28 0.28 0.29 0.32 0.31 0.34 0.36 0.33 0.34 0.29 0.27 0.25 0.23 0.21 0.19
0.50 0.55 0.57 0.56 0.52 0.55 0.51 0.47 0.43 0.40 0.39 0.39 0.32 0.31 0.29 0.27 0.27 0.28 0.29 0.30 0.30 0.30 0.31 0.32 0.31 0.28 0.25 0.23 0.22 0.22 0.19 0.18

GFSFLT1_prec_pwat_015.txt.gz
Precipitable_Water
0.89 0.95 1.00 1.04 1.13 1.27 1.30 1.33 1.36 1.35 1.34 1.29 1.23 1.14 1.05 0.97 0.92 0.84 0.76 0.71 0.71 0.71 0.71 0.72 0.71 0.68 0.66 0.67 0.63 0.59 0.50 0.46
0.92 1.01 1.06 1.09 1.16 1.21 1.21 1.24 1.32 1.34 1.25 1.14 0.97 0.84 0.84 0.83 0.77 0.73 0.72 0.73 0.72 0.72 0.71 0.72 0.71 0.66 0.63 0.60 0.56 0.50 0.40 0.38
0.87 0.96 1.04 1.09 1.13 1.20 1.22 1.25 1.31 1.24 1.11 0.95 0.90 0.87 0.85 0.75 0.73 0.75 0.75 0.75 0.74 0.72 0.74 0.70 0.67 0.61 0.55 0.50 0.46 0.44 0.41 0.41
0.85 0.94 1.03 1.09 1.13 1.16 1.15 1.11 1.09 1.01 0.93 0.91 0.87 0.83 0.75 0.72 0.74 0.72 0.76 0.78 0.76 0.72 0.68 0.64 0.60 0.54 0.45 0.42 0.44 0.45 0.37 0.38
0.88 0.93 0.97 1.01 0.99 1.01 0.97 0.92 0.88 0.88 0.82 0.76 0.75 0.76 0.75 0.76 0.74 0.76 0.77 0.77 0.73 0.65 0.59 0.57 0.52 0.47 0.43 0.42 0.42 0.43 0.39 0.35
0.79 0.82 0.82 0.84 0.85 0.85 0.84 0.79 0.74 0.74 0.77 0.78 0.75 0.73 0.74 0.73 0.74 0.72 0.69 0.62 0.53 0.44 0.39 0.37 0.39 0.44 0.44 0.45 0.45 0.43 0.41 0.39
0.72 0.73 0.73 0.74 0.79 0.78 0.75 0.73 0.73 0.76 0.77 0.77 0.75 0.71 0.68 0.66 0.65 0.56 0.51 0.42 0.38 0.36 0.35 0.34 0.35 0.40 0.45 0.45 0.44 0.43 0.44 0.43
0.62 0.62 0.64 0.71 0.75 0.76 0.74 0.72 0.71 0.74 0.73 0.71 0.66 0.62 0.61 0.59 0.62 0.49 0.39 0.37 0.36 0.33 0.34 0.36 0.38 0.38 0.44 0.43 0.43 0.44 0.48 0.43
0.60 0.61 0.66 0.72 0.75 0.73 0.71 0.71 0.70 0.69 0.65 0.61 0.62 0.64 0.68 0.64 0.51 0.39 0.39 0.35 0.32 0.32 0.35 0.40 0.43 0.45 0.46 0.47 0.48 0.51 0.47 0.41
0.60 0.62 0.68 0.72 0.74 0.72 0.73 0.70 0.64 0.62 0.63 0.65 0.66 0.65 0.62 0.52 0.47 0.44 0.36 0.34 0.32 0.33 0.36 0.39 0.43 0.45 0.46 0.50 0.50 0.45 0.41 0.37
0.60 0.63 0.67 0.71 0.73 0.76 0.72 0.66 0.61 0.65 0.68 0.67 0.62 0.59 0.58 0.52 0.44 0.38 0.36 0.35 0.35 0.36 0.34 0.34 0.39 0.44 0.48 0.47 0.41 0.37 0.37 0.37
0.60 0.63 0.66 0.68 0.73 0.70 0.67 0.63 0.66 0.66 0.67 0.66 0.61 0.54 0.51 0.44 0.39 0.39 0.38 0.37 0.38 0.35 0.34 0.33 0.34 0.37 0.39 0.39 0.36 0.36 0.40 0.35
0.61 0.62 0.64 0.65 0.66 0.65 0.64 0.66 0.65 0.65 0.68 0.62 0.53 0.51 0.45 0.40 0.41 0.41 0.41 0.40 0.37 0.35 0.35 0.36 0.36 0.35 0.34 0.36 0.36 0.34 0.35 0.31
0.61 0.61 0.61 0.63 0.63 0.62 0.62 0.65 0.63 0.65 0.64 0.52 0.51 0.48 0.43 0.42 0.42 0.43 0.43 0.39 0.35 0.36 0.37 0.35 0.34 0.34 0.34 0.39 0.37 0.32 0.31 0.33
0.60 0.59 0.59 0.63 0.63 0.61 0.62 0.64 0.66 0.66 0.54 0.48 0.45 0.44 0.44 0.42 0.43 0.45 0.42 0.38 0.34 0.34 0.36 0.34 0.33 0.33 0.31 0.30 0.30 0.30 0.32 0.33
0.55 0.56 0.57 0.60 0.60 0.59 0.61 0.63 0.67 0.60 0.51 0.46 0.44 0.45 0.45 0.44 0.43 0.42 0.39 0.36 0.34 0.34 0.35 0.36 0.38 0.35 0.31 0.29 0.30 0.32 0.32 0.31
0.53 0.54 0.56 0.56 0.56 0.55 0.59 0.64 0.60 0.59 0.49 0.47 0.46 0.45 0.44 0.41 0.39 0.38 0.35 0.34 0.34 0.34 0.34 0.35 0.36 0.37 0.35 0.31 0.26 0.25 0.25 0.24
0.49 0.52 0.55 0.55 0.55 0.55 0.59 0.59 0.59 0.53 0.51 0.49 0.46 0.47 0.43 0.38 0.36 0.32 0.31 0.33 0.34 0.33 0.33 0.32 0.35 0.37 0.34 0.26 0.23 0.23 0.23 0.22
0.49 0.52 0.55 0.59 0.58 0.55 0.60 0.59 0.54 0.55 0.47 0.48 0.49 0.44 0.35 0.32 0.30 0.29 0.30 0.33 0.32 0.32 0.32 0.32 0.33 0.34 0.30 0.25 0.24 0.24 0.23 0.22